Year,Month,Day,Hour,Minute,Value (Times are PST for temperature in C)
2017,08,02,00,00,21.70
2017,08,02,00,01,21.70
2017,08,02,00,02,21.70
2017,08,02,00,03,21.70
2017,08,02,00,04,21.70
2017,08,02,00,05,21.70
2017,08,02,00,06,21.70
2017,08,02,00,07,21.70
2017,08,02,00,08,21.60
2017,08,02,00,09,21.60
2017,08,02,00,10,21.60
2017,08,02,00,11,21.60
2017,08,02,00,12,21.60
2017,08,02,00,13,21.60
2017,08,02,00,14,21.60
2017,08,02,00,15,21.60
2017,08,02,00,16,21.60
2017,08,02,00,17,21.60
2017,08,02,00,18,21.50
2017,08,02,00,19,21.50
2017,08,02,00,20,21.40
2017,08,02,00,21,21.40
2017,08,02,00,22,21.40
2017,08,02,00,23,21.40
2017,08,02,00,24,21.40
2017,08,02,00,25,21.30
2017,08,02,00,26,21.30
2017,08,02,00,27,21.30
2017,08,02,00,28,21.30
2017,08,02,00,29,21.30
2017,08,02,00,30,21.30
2017,08,02,00,31,21.30
2017,08,02,00,32,21.30
2017,08,02,00,33,21.30
2017,08,02,00,34,21.30
2017,08,02,00,35,21.30
2017,08,02,00,36,21.30
2017,08,02,00,37,21.20
2017,08,02,00,38,21.20
2017,08,02,00,39,21.20
2017,08,02,00,40,21.20
2017,08,02,00,41,21.20
2017,08,02,00,42,21.20
2017,08,02,00,43,21.20
2017,08,02,00,44,21.20
2017,08,02,00,45,21.30
2017,08,02,00,46,21.30
2017,08,02,00,47,21.20
2017,08,02,00,48,21.20
2017,08,02,00,49,21.20
2017,08,02,00,50,21.20
2017,08,02,00,51,21.20
2017,08,02,00,52,21.20
2017,08,02,00,53,21.20
2017,08,02,00,54,21.20
2017,08,02,00,55,21.20
2017,08,02,00,56,21.20
2017,08,02,00,57,21.10
2017,08,02,00,58,21.10
2017,08,02,00,59,21.10
2017,08,02,01,00,21.00
2017,08,02,01,01,21.00
2017,08,02,01,02,21.10
2017,08,02,01,03,21.10
2017,08,02,01,04,21.10
2017,08,02,01,05,21.10
2017,08,02,01,06,21.10
2017,08,02,01,07,21.10
2017,08,02,01,08,21.10
2017,08,02,01,09,21.10
2017,08,02,01,10,21.10
2017,08,02,01,11,21.10
2017,08,02,01,12,21.10
2017,08,02,01,13,21.10
2017,08,02,01,14,21.10
2017,08,02,01,15,21.10
2017,08,02,01,16,21.10
2017,08,02,01,17,21.10
2017,08,02,01,18,21.10
2017,08,02,01,19,21.10
2017,08,02,01,20,21.10
2017,08,02,01,21,21.10
2017,08,02,01,22,21.10
2017,08,02,01,23,21.10
2017,08,02,01,24,21.10
2017,08,02,01,25,21.00
2017,08,02,01,26,21.00
2017,08,02,01,27,21.00
2017,08,02,01,28,21.00
2017,08,02,01,29,21.00
2017,08,02,01,30,21.00
2017,08,02,01,31,21.00
2017,08,02,01,32,21.00
2017,08,02,01,33,21.00
2017,08,02,01,34,21.00
2017,08,02,01,35,21.00
2017,08,02,01,36,21.00
2017,08,02,01,37,21.00
2017,08,02,01,38,21.00
2017,08,02,01,39,21.00
2017,08,02,01,40,21.00
2017,08,02,01,41,21.00
2017,08,02,01,42,21.00
2017,08,02,01,43,21.00
2017,08,02,01,44,21.00
2017,08,02,01,45,21.00
2017,08,02,01,46,21.00
2017,08,02,01,47,21.00
2017,08,02,01,48,21.00
2017,08,02,01,49,21.00
2017,08,02,01,50,21.00
2017,08,02,01,51,20.90
2017,08,02,01,52,20.90
2017,08,02,01,53,20.90
2017,08,02,01,54,20.90
2017,08,02,01,55,20.90
2017,08,02,01,56,20.80
2017,08,02,01,57,20.80
2017,08,02,01,58,20.80
2017,08,02,01,59,20.80
2017,08,02,02,00,20.80
2017,08,02,02,01,20.80
2017,08,02,02,02,20.80
2017,08,02,02,03,20.70
2017,08,02,02,04,20.70
2017,08,02,02,05,20.70
2017,08,02,02,06,20.70
2017,08,02,02,07,20.70
2017,08,02,02,08,20.70
2017,08,02,02,09,20.70
2017,08,02,02,10,20.70
2017,08,02,02,11,20.70
2017,08,02,02,12,20.60
2017,08,02,02,13,20.60
2017,08,02,02,14,20.60
2017,08,02,02,15,20.60
2017,08,02,02,16,20.60
2017,08,02,02,17,20.50
2017,08,02,02,18,20.50
2017,08,02,02,19,20.50
2017,08,02,02,20,20.50
2017,08,02,02,21,20.40
2017,08,02,02,22,20.40
2017,08,02,02,23,20.40
2017,08,02,02,24,20.40
2017,08,02,02,25,20.40
2017,08,02,02,26,20.40
2017,08,02,02,27,20.50
2017,08,02,02,28,20.50
2017,08,02,02,29,20.40
2017,08,02,02,30,20.40
2017,08,02,02,31,20.40
2017,08,02,02,32,20.40
2017,08,02,02,33,20.40
2017,08,02,02,34,20.30
2017,08,02,02,35,20.30
2017,08,02,02,36,20.30
2017,08,02,02,37,20.30
2017,08,02,02,38,20.30
2017,08,02,02,39,20.30
2017,08,02,02,40,20.20
2017,08,02,02,41,20.20
2017,08,02,02,42,20.20
2017,08,02,02,43,20.20
2017,08,02,02,44,20.20
2017,08,02,02,45,20.20
2017,08,02,02,46,20.20
2017,08,02,02,47,20.20
2017,08,02,02,48,20.20
2017,08,02,02,49,20.20
2017,08,02,02,50,20.20
2017,08,02,02,51,20.20
2017,08,02,02,52,20.20
2017,08,02,02,53,20.20
2017,08,02,02,54,20.10
2017,08,02,02,55,20.10
2017,08,02,02,56,20.10
2017,08,02,02,57,20.10
2017,08,02,02,58,20.10
2017,08,02,02,59,20.00
2017,08,02,03,00,20.00
2017,08,02,03,01,19.90
2017,08,02,03,02,19.90
2017,08,02,03,03,19.90
2017,08,02,03,04,19.90
2017,08,02,03,05,19.90
2017,08,02,03,06,19.90
2017,08,02,03,07,19.90
2017,08,02,03,08,19.90
2017,08,02,03,09,19.90
2017,08,02,03,10,19.90
2017,08,02,03,11,19.90
2017,08,02,03,12,19.80
2017,08,02,03,13,19.80
2017,08,02,03,14,19.90
2017,08,02,03,15,19.80
2017,08,02,03,16,19.80
2017,08,02,03,17,19.80
2017,08,02,03,18,19.80
2017,08,02,03,19,19.80
2017,08,02,03,20,19.80
2017,08,02,03,21,19.80
2017,08,02,03,22,19.80
2017,08,02,03,23,19.80
2017,08,02,03,24,19.80
2017,08,02,03,25,19.80
2017,08,02,03,26,19.80
2017,08,02,03,27,19.70
2017,08,02,03,28,19.70
2017,08,02,03,29,19.70
2017,08,02,03,30,19.70
2017,08,02,03,31,19.70
2017,08,02,03,32,19.70
2017,08,02,03,33,19.60
2017,08,02,03,34,19.60
2017,08,02,03,35,19.60
2017,08,02,03,36,19.60
2017,08,02,03,37,19.60
2017,08,02,03,38,19.60
2017,08,02,03,39,19.60
2017,08,02,03,40,19.50
2017,08,02,03,41,19.40
2017,08,02,03,42,19.40
2017,08,02,03,43,19.30
2017,08,02,03,44,19.20
2017,08,02,03,45,19.20
2017,08,02,03,46,19.10
2017,08,02,03,47,19.10
2017,08,02,03,48,19.00
2017,08,02,03,49,18.90
2017,08,02,03,50,18.80
2017,08,02,03,51,18.70
2017,08,02,03,52,18.60
2017,08,02,03,53,18.50
2017,08,02,03,54,18.40
2017,08,02,03,55,18.30
2017,08,02,03,56,18.20
2017,08,02,03,57,18.20
2017,08,02,03,58,18.10
2017,08,02,03,59,18.00
2017,08,02,04,00,17.90
2017,08,02,04,01,17.90
2017,08,02,04,02,17.80
2017,08,02,04,03,17.70
2017,08,02,04,04,17.60
2017,08,02,04,05,17.60
2017,08,02,04,06,17.60
2017,08,02,04,07,17.50
2017,08,02,04,08,17.50
2017,08,02,04,09,17.40
2017,08,02,04,10,17.40
2017,08,02,04,11,17.30
2017,08,02,04,12,17.30
2017,08,02,04,13,17.20
2017,08,02,04,14,17.20
2017,08,02,04,15,17.20
2017,08,02,04,16,17.10
2017,08,02,04,17,17.10
2017,08,02,04,18,17.10
2017,08,02,04,19,17.10
2017,08,02,04,20,17.00
2017,08,02,04,21,17.00
2017,08,02,04,22,16.90
2017,08,02,04,23,16.90
2017,08,02,04,24,16.90
2017,08,02,04,25,16.90
2017,08,02,04,26,16.80
2017,08,02,04,27,16.80
2017,08,02,04,28,16.80
2017,08,02,04,29,16.80
2017,08,02,04,30,16.80
2017,08,02,04,31,16.80
2017,08,02,04,32,16.80
2017,08,02,04,33,16.70
2017,08,02,04,34,16.70
2017,08,02,04,35,16.70
2017,08,02,04,36,16.80
2017,08,02,04,37,16.80
2017,08,02,04,38,16.90
2017,08,02,04,39,17.00
2017,08,02,04,40,17.00
2017,08,02,04,41,17.10
2017,08,02,04,42,17.20
2017,08,02,04,43,17.20
2017,08,02,04,44,17.20
2017,08,02,04,45,17.30
2017,08,02,04,46,17.20
2017,08,02,04,47,17.20
2017,08,02,04,48,17.20
2017,08,02,04,49,17.20
2017,08,02,04,50,17.10
2017,08,02,04,51,17.10
2017,08,02,04,52,17.10
2017,08,02,04,53,17.00
2017,08,02,04,54,17.00
2017,08,02,04,55,16.90
2017,08,02,04,56,16.90
2017,08,02,04,57,16.90
2017,08,02,04,58,16.80
2017,08,02,04,59,16.80
2017,08,02,05,00,16.80
2017,08,02,05,01,16.80
2017,08,02,05,02,16.70
2017,08,02,05,03,16.70
2017,08,02,05,04,16.70
2017,08,02,05,05,16.70
2017,08,02,05,06,16.60
2017,08,02,05,07,16.60
2017,08,02,05,08,16.60
2017,08,02,05,09,16.50
2017,08,02,05,10,16.50
2017,08,02,05,11,16.50
2017,08,02,05,12,16.50
2017,08,02,05,13,16.40
2017,08,02,05,14,16.40
2017,08,02,05,15,16.40
2017,08,02,05,16,16.30
2017,08,02,05,17,16.30
2017,08,02,05,18,16.30
2017,08,02,05,19,16.30
2017,08,02,05,20,16.20
2017,08,02,05,21,16.20
2017,08,02,05,22,16.10
2017,08,02,05,23,16.00
2017,08,02,05,24,16.00
2017,08,02,05,25,15.90
2017,08,02,05,26,15.90
2017,08,02,05,27,15.90
2017,08,02,05,28,15.80
2017,08,02,05,29,15.80
2017,08,02,05,30,15.80
2017,08,02,05,31,15.80
2017,08,02,05,32,15.70
2017,08,02,05,33,15.70
2017,08,02,05,34,15.70
2017,08,02,05,35,15.70
2017,08,02,05,36,15.60
2017,08,02,05,37,15.60
2017,08,02,05,38,15.60
2017,08,02,05,39,15.60
2017,08,02,05,40,15.60
2017,08,02,05,41,15.50
2017,08,02,05,42,15.50
2017,08,02,05,43,15.50
2017,08,02,05,44,15.50
2017,08,02,05,45,15.40
2017,08,02,05,46,15.40
2017,08,02,05,47,15.40
2017,08,02,05,48,15.40
2017,08,02,05,49,15.40
2017,08,02,05,50,15.40
2017,08,02,05,51,15.40
2017,08,02,05,52,15.30
2017,08,02,05,53,15.30
2017,08,02,05,54,15.30
2017,08,02,05,55,15.30
2017,08,02,05,56,15.30
2017,08,02,05,57,15.30
2017,08,02,05,58,15.30
2017,08,02,05,59,15.30
2017,08,02,06,00,15.30
2017,08,02,06,01,15.20
2017,08,02,06,02,15.20
2017,08,02,06,03,15.20
2017,08,02,06,04,15.20
2017,08,02,06,05,15.20
2017,08,02,06,06,15.20
2017,08,02,06,07,15.20
2017,08,02,06,08,15.10
2017,08,02,06,09,15.10
2017,08,02,06,10,15.10
2017,08,02,06,11,15.10
2017,08,02,06,12,15.10
2017,08,02,06,13,15.10
2017,08,02,06,14,15.00
2017,08,02,06,15,15.00
2017,08,02,06,16,15.00
2017,08,02,06,17,14.90
2017,08,02,06,18,14.90
2017,08,02,06,19,14.90
2017,08,02,06,20,14.90
2017,08,02,06,21,14.90
2017,08,02,06,22,14.90
2017,08,02,06,23,14.90
2017,08,02,06,24,14.80
2017,08,02,06,25,14.80
2017,08,02,06,26,14.80
2017,08,02,06,27,14.80
2017,08,02,06,28,14.80
2017,08,02,06,29,14.80
2017,08,02,06,30,14.80
2017,08,02,06,31,14.80
2017,08,02,06,32,14.80
2017,08,02,06,33,14.80
2017,08,02,06,34,14.80
2017,08,02,06,35,14.80
2017,08,02,06,36,14.80
2017,08,02,06,37,14.80
2017,08,02,06,38,14.80
2017,08,02,06,39,14.80
2017,08,02,06,40,14.80
2017,08,02,06,41,14.80
2017,08,02,06,42,14.90
2017,08,02,06,43,14.90
2017,08,02,06,44,14.90
2017,08,02,06,45,14.90
2017,08,02,06,46,14.90
2017,08,02,06,47,14.90
2017,08,02,06,48,14.90
2017,08,02,06,49,14.90
2017,08,02,06,50,14.90
2017,08,02,06,51,14.90
2017,08,02,06,52,14.90
2017,08,02,06,53,15.00
2017,08,02,06,54,15.00
2017,08,02,06,55,15.00
2017,08,02,06,56,15.00
2017,08,02,06,57,15.10
2017,08,02,06,58,15.10
2017,08,02,06,59,15.10
2017,08,02,07,00,15.10
2017,08,02,07,01,15.10
2017,08,02,07,02,15.20
2017,08,02,07,03,15.20
2017,08,02,07,04,15.20
2017,08,02,07,05,15.20
2017,08,02,07,06,15.20
2017,08,02,07,07,15.30
2017,08,02,07,08,15.30
2017,08,02,07,09,15.30
2017,08,02,07,10,15.30
2017,08,02,07,11,15.40
2017,08,02,07,12,15.40
2017,08,02,07,13,15.40
2017,08,02,07,14,15.40
2017,08,02,07,15,15.50
2017,08,02,07,16,15.60
2017,08,02,07,17,15.60
2017,08,02,07,18,15.60
2017,08,02,07,19,15.70
2017,08,02,07,20,15.70
2017,08,02,07,21,15.70
2017,08,02,07,22,15.80
2017,08,02,07,23,15.80
2017,08,02,07,24,15.90
2017,08,02,07,25,15.90
2017,08,02,07,26,16.00
2017,08,02,07,27,16.00
2017,08,02,07,28,16.10
2017,08,02,07,29,16.10
2017,08,02,07,30,16.20
2017,08,02,07,31,16.20
2017,08,02,07,32,16.30
2017,08,02,07,33,16.30
2017,08,02,07,34,16.40
2017,08,02,07,35,16.40
2017,08,02,07,36,16.50
2017,08,02,07,37,16.60
2017,08,02,07,38,16.60
2017,08,02,07,39,16.60
2017,08,02,07,40,16.70
2017,08,02,07,41,16.80
2017,08,02,07,42,16.80
2017,08,02,07,43,16.90
2017,08,02,07,44,17.00
2017,08,02,07,45,17.10
2017,08,02,07,46,17.20
2017,08,02,07,47,17.30
2017,08,02,07,48,17.40
2017,08,02,07,49,17.50
2017,08,02,07,50,17.60
2017,08,02,07,51,17.70
2017,08,02,07,52,17.80
2017,08,02,07,53,17.90
2017,08,02,07,54,18.00
2017,08,02,07,55,18.10
2017,08,02,07,56,18.20
2017,08,02,07,57,18.20
2017,08,02,07,58,18.30
2017,08,02,07,59,18.40
2017,08,02,08,00,18.50
2017,08,02,08,01,18.60
2017,08,02,08,02,18.70
2017,08,02,08,03,18.80
2017,08,02,08,04,18.80
2017,08,02,08,05,18.90
2017,08,02,08,06,19.00
2017,08,02,08,07,19.00
2017,08,02,08,08,19.10
2017,08,02,08,09,19.10
2017,08,02,08,10,19.10
2017,08,02,08,11,19.10
2017,08,02,08,12,19.10
2017,08,02,08,13,19.20
2017,08,02,08,14,19.20
2017,08,02,08,15,19.20
2017,08,02,08,16,19.20
2017,08,02,08,17,19.20
2017,08,02,08,18,19.20
2017,08,02,08,19,19.20
2017,08,02,08,20,19.20
2017,08,02,08,21,19.20
2017,08,02,08,22,19.20
2017,08,02,08,23,19.20
2017,08,02,08,24,19.20
2017,08,02,08,25,19.20
2017,08,02,08,26,19.20
2017,08,02,08,27,19.20
2017,08,02,08,28,19.20
2017,08,02,08,29,19.20
2017,08,02,08,30,19.20
2017,08,02,08,31,19.20
2017,08,02,08,32,19.20
2017,08,02,08,33,19.20
2017,08,02,08,34,19.20
2017,08,02,08,35,19.20
2017,08,02,08,36,19.30
2017,08,02,08,37,19.30
2017,08,02,08,38,19.30
2017,08,02,08,39,19.30
2017,08,02,08,40,19.30
2017,08,02,08,41,19.40
2017,08,02,08,42,19.40
2017,08,02,08,43,19.40
2017,08,02,08,44,19.50
2017,08,02,08,45,19.50
2017,08,02,08,46,19.60
2017,08,02,08,47,19.60
2017,08,02,08,48,19.60
2017,08,02,08,49,19.60
2017,08,02,08,50,19.70
2017,08,02,08,51,19.70
2017,08,02,08,52,19.60
2017,08,02,08,53,19.70
2017,08,02,08,54,19.70
2017,08,02,08,55,19.70
2017,08,02,08,56,19.70
2017,08,02,08,57,19.70
2017,08,02,08,58,19.70
2017,08,02,08,59,19.70
2017,08,02,09,00,19.70
2017,08,02,09,01,19.70
2017,08,02,09,02,19.80
2017,08,02,09,03,19.80
2017,08,02,09,04,19.80
2017,08,02,09,05,19.90
2017,08,02,09,06,19.90
2017,08,02,09,07,19.90
2017,08,02,09,08,20.00
2017,08,02,09,09,20.00
2017,08,02,09,10,20.10
2017,08,02,09,11,20.10
2017,08,02,09,12,20.10
2017,08,02,09,13,20.10
2017,08,02,09,14,20.10
2017,08,02,09,15,20.20
2017,08,02,09,16,20.20
2017,08,02,09,17,20.30
2017,08,02,09,18,20.30
2017,08,02,09,19,20.30
2017,08,02,09,20,20.40
2017,08,02,09,21,20.40
2017,08,02,09,22,20.40
2017,08,02,09,23,20.40
2017,08,02,09,24,20.40
2017,08,02,09,25,20.50
2017,08,02,09,26,20.50
2017,08,02,09,27,20.50
2017,08,02,09,28,20.60
2017,08,02,09,29,20.60
2017,08,02,09,30,20.70
2017,08,02,09,31,20.70
2017,08,02,09,32,20.70
2017,08,02,09,33,20.70
2017,08,02,09,34,20.70
2017,08,02,09,35,20.70
2017,08,02,09,36,20.80
2017,08,02,09,37,20.80
2017,08,02,09,38,20.80
2017,08,02,09,39,20.90
2017,08,02,09,40,20.90
2017,08,02,09,41,20.90
2017,08,02,09,42,20.90
2017,08,02,09,43,20.90
2017,08,02,09,44,20.90
2017,08,02,09,45,20.90
2017,08,02,09,46,20.90
2017,08,02,09,47,21.00
2017,08,02,09,48,21.00
2017,08,02,09,49,21.10
2017,08,02,09,50,21.10
2017,08,02,09,51,21.10
2017,08,02,09,52,21.10
2017,08,02,09,53,21.10
2017,08,02,09,54,21.10
2017,08,02,09,55,21.10
2017,08,02,09,56,21.20
2017,08,02,09,57,21.20
2017,08,02,09,58,21.20
2017,08,02,09,59,21.20
2017,08,02,10,00,21.30
2017,08,02,10,01,21.30
2017,08,02,10,02,21.30
2017,08,02,10,03,21.40
2017,08,02,10,04,21.40
2017,08,02,10,05,21.40
2017,08,02,10,06,21.50
2017,08,02,10,07,21.50
2017,08,02,10,08,21.60
2017,08,02,10,09,21.60
2017,08,02,10,10,21.60
2017,08,02,10,11,21.60
2017,08,02,10,12,21.60
2017,08,02,10,13,21.60
2017,08,02,10,14,21.60
2017,08,02,10,15,21.60
2017,08,02,10,16,21.60
2017,08,02,10,17,21.60
2017,08,02,10,18,21.60
2017,08,02,10,19,21.60
2017,08,02,10,20,21.70
2017,08,02,10,21,21.70
2017,08,02,10,22,21.80
2017,08,02,10,23,21.80
2017,08,02,10,24,21.80
2017,08,02,10,25,21.80
2017,08,02,10,26,21.80
2017,08,02,10,27,21.80
2017,08,02,10,28,21.80
2017,08,02,10,29,21.80
2017,08,02,10,30,21.90
2017,08,02,10,31,21.90
2017,08,02,10,32,21.90
2017,08,02,10,33,21.90
2017,08,02,10,34,21.90
2017,08,02,10,35,21.90
2017,08,02,10,36,22.00
2017,08,02,10,37,22.00
2017,08,02,10,38,22.00
2017,08,02,10,39,22.00
2017,08,02,10,40,22.00
2017,08,02,10,41,22.10
2017,08,02,10,42,22.10
2017,08,02,10,43,22.10
2017,08,02,10,44,22.00
2017,08,02,10,45,22.00
2017,08,02,10,46,22.00
2017,08,02,10,47,22.10
2017,08,02,10,48,22.10
2017,08,02,10,49,22.20
2017,08,02,10,50,22.20
2017,08,02,10,51,22.20
2017,08,02,10,52,22.20
2017,08,02,10,53,22.30
2017,08,02,10,54,22.30
2017,08,02,10,55,22.30
2017,08,02,10,56,22.30
2017,08,02,10,57,22.40
2017,08,02,10,58,22.40
2017,08,02,10,59,22.40
2017,08,02,11,00,22.40
2017,08,02,11,01,22.40
2017,08,02,11,02,22.50
2017,08,02,11,03,22.50
2017,08,02,11,04,22.60
2017,08,02,11,05,22.60
2017,08,02,11,06,22.70
2017,08,02,11,07,22.80
2017,08,02,11,08,22.80
2017,08,02,11,09,22.80
2017,08,02,11,10,22.80
2017,08,02,11,11,22.90
2017,08,02,11,12,22.90
2017,08,02,11,13,22.90
2017,08,02,11,14,22.90
2017,08,02,11,15,23.00
2017,08,02,11,16,23.00
2017,08,02,11,17,23.10
2017,08,02,11,18,23.20
2017,08,02,11,19,23.30
2017,08,02,11,20,23.30
2017,08,02,11,21,23.30
2017,08,02,11,22,23.30
2017,08,02,11,23,23.30
2017,08,02,11,24,23.30
2017,08,02,11,25,23.30
2017,08,02,11,26,23.30
2017,08,02,11,27,23.30
2017,08,02,11,28,23.40
2017,08,02,11,29,23.40
2017,08,02,11,30,23.40
2017,08,02,11,31,23.40
2017,08,02,11,32,23.50
2017,08,02,11,33,23.50
2017,08,02,11,34,23.60
2017,08,02,11,35,23.60
2017,08,02,11,36,23.70
2017,08,02,11,37,23.70
2017,08,02,11,38,23.80
2017,08,02,11,39,23.80
2017,08,02,11,40,23.80
2017,08,02,11,41,23.80
2017,08,02,11,42,23.80
2017,08,02,11,43,23.90
2017,08,02,11,44,23.80
2017,08,02,11,45,23.90
2017,08,02,11,46,23.90
2017,08,02,11,47,23.90
2017,08,02,11,48,23.80
2017,08,02,11,49,23.80
2017,08,02,11,50,23.80
2017,08,02,11,51,23.70
2017,08,02,11,52,23.70
2017,08,02,11,53,23.70
2017,08,02,11,54,23.70
2017,08,02,11,55,23.80
2017,08,02,11,56,23.80
2017,08,02,11,57,23.90
2017,08,02,11,58,23.90
2017,08,02,11,59,23.90
2017,08,02,12,00,23.90
2017,08,02,12,01,23.90
2017,08,02,12,02,24.00
2017,08,02,12,03,24.00
2017,08,02,12,04,24.10
2017,08,02,12,05,24.10
2017,08,02,12,06,24.20
2017,08,02,12,07,24.20
2017,08,02,12,08,24.20
2017,08,02,12,09,24.30
2017,08,02,12,10,24.40
2017,08,02,12,11,24.40
2017,08,02,12,12,24.40
2017,08,02,12,13,24.40
2017,08,02,12,14,24.40
2017,08,02,12,15,24.40
2017,08,02,12,16,24.40
2017,08,02,12,17,24.40
2017,08,02,12,18,24.40
2017,08,02,12,19,24.40
2017,08,02,12,20,24.40
2017,08,02,12,21,24.50
2017,08,02,12,22,24.50
2017,08,02,12,23,24.40
2017,08,02,12,24,24.40
2017,08,02,12,25,24.50
2017,08,02,12,26,24.50
2017,08,02,12,27,24.60
2017,08,02,12,28,24.70
2017,08,02,12,29,24.70
2017,08,02,12,30,24.80
2017,08,02,12,31,24.80
2017,08,02,12,32,24.80
2017,08,02,12,33,24.80
2017,08,02,12,34,24.90
2017,08,02,12,35,25.00
2017,08,02,12,36,25.00
2017,08,02,12,37,25.10
2017,08,02,12,38,25.20
2017,08,02,12,39,25.20
2017,08,02,12,40,25.20
2017,08,02,12,41,25.30
2017,08,02,12,42,25.30
2017,08,02,12,43,25.30
2017,08,02,12,44,25.30
2017,08,02,12,45,25.40
2017,08,02,12,46,25.40
2017,08,02,12,47,25.50
2017,08,02,12,48,25.60
2017,08,02,12,49,25.60
2017,08,02,12,50,25.60
2017,08,02,12,51,25.60
2017,08,02,12,52,25.60
2017,08,02,12,53,25.60
2017,08,02,12,54,25.60
2017,08,02,12,55,25.60
2017,08,02,12,56,25.70
2017,08,02,12,57,25.70
2017,08,02,12,58,25.70
2017,08,02,12,59,25.70
2017,08,02,13,00,25.70
2017,08,02,13,01,25.70
2017,08,02,13,02,25.70
2017,08,02,13,03,25.70
2017,08,02,13,04,25.70
2017,08,02,13,05,25.70
2017,08,02,13,06,25.70
2017,08,02,13,07,25.70
2017,08,02,13,08,25.70
2017,08,02,13,09,25.70
2017,08,02,13,10,25.80
2017,08,02,13,11,25.80
2017,08,02,13,12,25.90
2017,08,02,13,13,25.90
2017,08,02,13,14,26.00
2017,08,02,13,15,26.10
2017,08,02,13,16,26.10
2017,08,02,13,17,26.20
2017,08,02,13,18,26.30
2017,08,02,13,19,26.30
2017,08,02,13,20,26.30
2017,08,02,13,21,26.30
2017,08,02,13,22,26.30
2017,08,02,13,23,26.30
2017,08,02,13,24,26.20
2017,08,02,13,25,26.20
2017,08,02,13,26,26.20
2017,08,02,13,27,26.10
2017,08,02,13,28,26.10
2017,08,02,13,29,26.10
2017,08,02,13,30,26.20
2017,08,02,13,31,26.20
2017,08,02,13,32,26.20
2017,08,02,13,33,26.20
2017,08,02,13,34,26.30
2017,08,02,13,35,26.30
2017,08,02,13,36,26.40
2017,08,02,13,37,26.40
2017,08,02,13,38,26.40
2017,08,02,13,39,26.50
2017,08,02,13,40,26.60
2017,08,02,13,41,26.60
2017,08,02,13,42,26.60
2017,08,02,13,43,26.60
2017,08,02,13,44,26.60
2017,08,02,13,45,26.70
2017,08,02,13,46,26.70
2017,08,02,13,47,26.70
2017,08,02,13,48,26.70
2017,08,02,13,49,26.60
2017,08,02,13,50,26.60
2017,08,02,13,51,26.60
2017,08,02,13,52,26.70
2017,08,02,13,53,26.70
2017,08,02,13,54,26.70
2017,08,02,13,55,26.80
2017,08,02,13,56,26.90
2017,08,02,13,57,26.90
2017,08,02,13,58,27.00
2017,08,02,13,59,27.00
2017,08,02,14,00,27.10
2017,08,02,14,01,27.10
2017,08,02,14,02,27.10
2017,08,02,14,03,27.10
2017,08,02,14,04,27.10
2017,08,02,14,05,27.20
2017,08,02,14,06,27.20
2017,08,02,14,07,27.20
2017,08,02,14,08,27.30
2017,08,02,14,09,27.30
2017,08,02,14,10,27.30
2017,08,02,14,11,27.30
2017,08,02,14,12,27.30
2017,08,02,14,13,27.40
2017,08,02,14,14,27.40
2017,08,02,14,15,27.40
2017,08,02,14,16,27.30
2017,08,02,14,17,27.40
2017,08,02,14,18,27.40
2017,08,02,14,19,27.40
2017,08,02,14,20,27.50
2017,08,02,14,21,27.50
2017,08,02,14,22,27.50
2017,08,02,14,23,27.60
2017,08,02,14,24,27.70
2017,08,02,14,25,27.80
2017,08,02,14,26,27.80
2017,08,02,14,27,27.90
2017,08,02,14,28,27.90
2017,08,02,14,29,27.90
2017,08,02,14,30,27.90
2017,08,02,14,31,27.90
2017,08,02,14,32,27.90
2017,08,02,14,33,27.90
2017,08,02,14,34,27.90
2017,08,02,14,35,27.90
2017,08,02,14,36,27.90
2017,08,02,14,37,27.80
2017,08,02,14,38,27.80
2017,08,02,14,39,27.70
2017,08,02,14,40,27.70
2017,08,02,14,41,27.70
2017,08,02,14,42,27.70
2017,08,02,14,43,27.70
2017,08,02,14,44,27.70
2017,08,02,14,45,27.70
2017,08,02,14,46,27.80
2017,08,02,14,47,27.80
2017,08,02,14,48,27.90
2017,08,02,14,49,27.90
2017,08,02,14,50,27.90
2017,08,02,14,51,28.00
2017,08,02,14,52,28.00
2017,08,02,14,53,28.10
2017,08,02,14,54,28.10
2017,08,02,14,55,28.20
2017,08,02,14,56,28.20
2017,08,02,14,57,28.20
2017,08,02,14,58,28.20
2017,08,02,14,59,28.20
2017,08,02,15,00,28.20
2017,08,02,15,01,28.30
2017,08,02,15,02,28.30
2017,08,02,15,03,28.30
2017,08,02,15,04,28.30
2017,08,02,15,05,28.30
2017,08,02,15,06,28.30
2017,08,02,15,07,28.30
2017,08,02,15,08,28.30
2017,08,02,15,09,28.30
2017,08,02,15,10,28.30
2017,08,02,15,11,28.30
2017,08,02,15,12,28.30
2017,08,02,15,13,28.30
2017,08,02,15,14,28.30
2017,08,02,15,15,28.30
2017,08,02,15,16,28.40
2017,08,02,15,17,28.50
2017,08,02,15,18,28.60
2017,08,02,15,19,28.60
2017,08,02,15,20,28.70
2017,08,02,15,21,28.70
2017,08,02,15,22,28.60
2017,08,02,15,23,28.60
2017,08,02,15,24,28.60
2017,08,02,15,25,28.70
2017,08,02,15,26,28.70
2017,08,02,15,27,28.80
2017,08,02,15,28,28.80
2017,08,02,15,29,28.90
2017,08,02,15,30,29.00
2017,08,02,15,31,29.10
2017,08,02,15,32,29.10
2017,08,02,15,33,29.20
2017,08,02,15,34,29.30
2017,08,02,15,35,29.40
2017,08,02,15,36,29.40
2017,08,02,15,37,29.50
2017,08,02,15,38,29.50
2017,08,02,15,39,29.40
2017,08,02,15,40,29.40
2017,08,02,15,41,29.40
2017,08,02,15,42,29.40
2017,08,02,15,43,29.40
2017,08,02,15,44,29.40
2017,08,02,15,45,29.40
2017,08,02,15,46,29.50
2017,08,02,15,47,29.60
2017,08,02,15,48,29.60
2017,08,02,15,49,29.70
2017,08,02,15,50,29.80
2017,08,02,15,51,29.80
2017,08,02,15,52,29.80
2017,08,02,15,53,29.80
2017,08,02,15,54,29.80
2017,08,02,15,55,29.80
2017,08,02,15,56,29.70
2017,08,02,15,57,29.70
2017,08,02,15,58,29.70
2017,08,02,15,59,29.70
2017,08,02,16,00,29.70
2017,08,02,16,01,29.70
2017,08,02,16,02,29.70
2017,08,02,16,03,29.60
2017,08,02,16,04,29.60
2017,08,02,16,05,29.60
2017,08,02,16,06,29.60
2017,08,02,16,07,29.60
2017,08,02,16,08,29.60
2017,08,02,16,09,29.60
2017,08,02,16,10,29.60
2017,08,02,16,11,29.60
2017,08,02,16,12,29.60
2017,08,02,16,13,29.60
2017,08,02,16,14,29.60
2017,08,02,16,15,29.60
2017,08,02,16,16,29.70
2017,08,02,16,17,29.70
2017,08,02,16,18,29.70
2017,08,02,16,19,29.70
2017,08,02,16,20,29.70
2017,08,02,16,21,29.80
2017,08,02,16,22,29.80
2017,08,02,16,23,29.80
2017,08,02,16,24,29.80
2017,08,02,16,25,29.80
2017,08,02,16,26,29.80
2017,08,02,16,27,29.80
2017,08,02,16,28,29.70
2017,08,02,16,29,29.70
2017,08,02,16,30,29.80
2017,08,02,16,31,29.80
2017,08,02,16,32,29.80
2017,08,02,16,33,29.80
2017,08,02,16,34,29.80
2017,08,02,16,35,29.80
2017,08,02,16,36,29.80
2017,08,02,16,37,29.80
2017,08,02,16,38,29.80
2017,08,02,16,39,29.90
2017,08,02,16,40,29.80
2017,08,02,16,41,29.90
2017,08,02,16,42,29.90
2017,08,02,16,43,29.90
2017,08,02,16,44,29.90
2017,08,02,16,45,29.90
2017,08,02,16,46,29.90
2017,08,02,16,47,29.90
2017,08,02,16,48,29.90
2017,08,02,16,49,29.90
2017,08,02,16,50,29.90
2017,08,02,16,51,29.90
2017,08,02,16,52,29.90
2017,08,02,16,53,29.90
2017,08,02,16,54,29.80
2017,08,02,16,55,29.90
2017,08,02,16,56,29.90
2017,08,02,16,57,29.90
2017,08,02,16,58,30.00
2017,08,02,16,59,30.10
2017,08,02,17,00,30.10
2017,08,02,17,01,30.20
2017,08,02,17,02,30.20
2017,08,02,17,03,30.20
2017,08,02,17,04,30.30
2017,08,02,17,05,30.30
2017,08,02,17,06,30.30
2017,08,02,17,07,30.30
2017,08,02,17,08,30.30
2017,08,02,17,09,30.30
2017,08,02,17,10,30.20
2017,08,02,17,11,30.20
2017,08,02,17,12,30.20
2017,08,02,17,13,30.20
2017,08,02,17,14,30.20
2017,08,02,17,15,30.20
2017,08,02,17,16,30.20
2017,08,02,17,17,30.20
2017,08,02,17,18,30.20
2017,08,02,17,19,30.20